GIOVE-A 1 28922U 05051A 09182.81407281 +.00000053 +00000-0 +10000-3 0 05027 2 28922 056.0749 156.9801 0006035 337.0783 022.8635 01.70183117021818 GIOVE-B 1 32781U 08020A 09183.17500425 +.00000084 +00000-0 +10000-3 0 01871 2 32781 055.9477 191.8542 0020852 220.5072 139.3711 01.70950293007384